Tracking 33446 objects as of 10-Mar-2026
HD Live streaming from Space Station
objects crossing your sky now

KUIPER-00125

Track KUIPER-00125 now!
10-day predictions
KUIPER-00125 is classified as:


NORAD ID: 65954
Int'l Code: 2025-228H
Perigee: 636.2 km
Apogee: 637.2 km
Inclination: 51.9 °
Period: 97.3 minutes
Semi major axis: 7007 km
RCS: Unknown
Launch date: October 14, 2025
Source: United States (US)
Launch site: AIR FORCE EASTERN TEST RANGE (AFETR)
Your satellite tracking list
Your tracking list is empty




NASA's NSSDC Master Catalog

Two Line Element Set (TLE):
1 65954U 25228H   26069.18956492  .00004527  00000-0  62250-3 0  9991
2 65954  51.9024 338.3943 0000672 108.0371 252.0664 14.79929318 23586
Source of the keplerian elements: AFSPC